This is the latest recevied weather packets stored in our database for station/object DM1HF-13. If no packets are shown the sender has not sent any weather packets the latest 1 day(s).
| Time | Temp. | Humidity | Pressure | Rain* | Wind** | Luminosity | Snow |
|---|---|---|---|---|---|---|---|
| 1836274691 | 16.11° C | 73% | 1020.4 hPa | 0 mm | 0.89 m/s, 171° | 0 W/m² | - |
| 1836274540 | 16.11° C | 72% | 1020.3 hPa | 0 mm | 1.34 m/s, 176° | 0 W/m² | - |
| 1836274391 | 16.11° C | 73% | 1020.5 hPa | 0 mm | 0.89 m/s, 140° | 0 W/m² | - |
| 1836274241 | 16.11° C | 73% | 1020.3 hPa | 0 mm | 1.34 m/s, 160° | 0 W/m² | - |
| 1836274091 | 16.11° C | 74% | 1020.5 hPa | 0 mm | 1.34 m/s, 152° | 0 W/m² | - |
| 1778013316 | 16.11° C | 77% | 1008.3 hPa | 1.02 mm | 0.89 m/s, 295° | 0 W/m² | - |
| 1778013016 | 16.11° C | 76% | 1008.3 hPa | 1.02 mm | 0.45 m/s, 279° | 0 W/m² | - |
| 1778012716 | 16.11° C | 76% | 1008.3 hPa | 2.29 mm | 0.45 m/s, 302° | 0 W/m² | - |
| 1778012416 | 16.11° C | 75% | 1008.2 hPa | 0 mm | 0.45 m/s, 299° | 0 W/m² | - |
| 1778012117 | 16.11° C | 75% | 1008 hPa | 0 mm | 0 m/s | 0 W/m² | - |
| 1778011816 | 16.11° C | 75% | 1007.8 hPa | 0 mm | 0.45 m/s, 314° | 0 W/m² | - |
| 1778011516 | 16.67° C | 74% | 1007.7 hPa | 0 mm | 0.45 m/s, 253° | 0 W/m² | - |
| 1778011216 | 16.67° C | 74% | 1007.6 hPa | 0 mm | 0.45 m/s, 238° | 0 W/m² | - |
| 1778010916 | 16.67° C | 74% | 1007.6 hPa | 0 mm | 0.89 m/s, 292° | 0 W/m² | - |
| 1778010617 | 16.67° C | 74% | 1007.6 hPa | 0 mm | 0.45 m/s, 147° | 0 W/m² | - |
| 1778010316 | 16.67° C | 74% | 1007.3 hPa | 0 mm | 0.89 m/s, 356° | 0 W/m² | - |
| 1778010016 | 16.67° C | 74% | 1007.2 hPa | 0 mm | 1.34 m/s, 310° | 0 W/m² | - |
| 1778009717 | 16.67° C | 74% | 1007.3 hPa | 0 mm | 0.89 m/s, 308° | 0 W/m² | - |
| 1778009416 | 16.67° C | 75% | 1007.4 hPa | 0 mm | 0.89 m/s, 318° | 0 W/m² | - |
| 1778009116 | 16.67° C | 75% | 1007.5 hPa | 0 mm | 0.45 m/s, 21° | 0 W/m² | - |
| 1778008816 | 16.67° C | 75% | 1007.6 hPa | 0 mm | 0.89 m/s, 290° | 0 W/m² | - |
| 1778008517 | 16.67° C | 75% | 1007.6 hPa | 0 mm | 0.45 m/s, 247° | 0 W/m² | - |
| 1778008216 | 16.67° C | 74% | 1007.6 hPa | 0 mm | 1.34 m/s, 260° | 0 W/m² | - |
| 1778007916 | 16.67° C | 74% | 1007.6 hPa | 0 mm | 0.45 m/s, 266° | 0 W/m² | - |
| 1778007616 | 16.67° C | 74% | 1007.6 hPa | 0 mm | 0.45 m/s, 228° | 0 W/m² | - |
* Rain latest hour (hover to see other rain measurements)
** Current wind speed in m/s (hover to see current wind gust speed)